WX6HNX-12 Weather Reports


time (UTC)temp
C
wind
direction
speed
KPH
gust
KPH
rain 1hr
cm
rain 24hr
cm
rain mn
cm
humidity
%
barometer
mb
20260506223819 25 0 0.0 1.6 0.00 0.00 0.00 39 1016.6
20260506223319 25 0 0.0 1.6 0.00 0.00 0.00 39 1016.6
20260506222819 25 0 0.0 0.0 0.00 0.00 0.00 39 1016.6
20260506222320 25 0 0.0 6.4 0.00 0.00 0.00 40 1016.6
20260506221820 25 0 0.0 6.4 0.00 0.00 0.00 39 1016.7
20260506221322 25 0 0.0 1.6 0.00 0.00 0.00 40 1016.7
20260506220822 25 0 0.0 1.6 0.00 0.00 0.00 40 1016.8
20260506220321 25 0 0.0 3.2 0.00 0.00 0.00 40 1016.8
20260506215820 25 0 0.0 6.4 0.00 0.00 0.00 41 1016.9
20260506215322 24 0 0.0 6.4 0.00 0.00 0.00 40 1017.0
20260506214821 24 0 0.0 0.0 0.00 0.00 0.00 41 1017.1
20260506214321 24 0 0.0 3.2 0.00 0.00 0.00 41 1017.1
20260506213821 24 0 0.0 3.2 0.00 0.00 0.00 41 1017.2
20260506213008 24 0 0.0 6.4 0.00 0.00 0.00 41 1017.3
20260506212507 23 0 0.0 0.0 0.00 0.00 0.00 41 1017.3
20260506212006 23 0 0.0 0.0 0.00 0.00 0.00 41 1017.3
20260506211506 23 0 0.0 0.0 0.00 0.00 0.00 41 1017.5
20260506211005 23 0 0.0 0.0 0.00 0.00 0.00 41 1017.5
20260506210506 24 0 0.0 4.8 0.00 0.00 0.00 41 1017.4
20260506210009 24 0 0.0 4.8 0.00 0.00 0.00 41 1017.4
20260506205428 23 0 0.0 6.4 0.00 0.00 0.00 41 1017.4
20260506204928 23 0 0.0 6.4 0.00 0.00 0.00 42 1017.4
20260506204431 23 0 0.0 8.0 0.00 0.00 0.00 43 1017.5
20260506203928 23 0 0.0 8.0 0.00 0.00 0.00 42 1017.6
20260506202924 23 0 0.0 0.0 0.00 0.00 0.00 43 1017.6
20260506202425 22 0 0.0 1.6 0.00 0.00 0.00 44 1017.8
20260506201924 22 0 0.0 1.6 0.00 0.00 0.00 44 1017.8
20260506201424 23 0 0.0 11.3 0.00 0.00 0.00 44 1017.8
20260506200925 23 170 1.6 11.3 0.00 0.00 0.00 43 1017.9
20260506200424 23 0 0.0 6.4 0.00 0.00 0.00 44 1018.0
20260506195925 22 0 0.0 6.4 0.00 0.00 0.00 45 1018.0
20260506195424 22 0 0.0 1.6 0.00 0.00 0.00 45 1018.0
20260506194924 22 0 0.0 1.6 0.00 0.00 0.00 45 1018.1
20260506194424 22 0 0.0 0.0 0.00 0.00 0.00 46 1018.1
20260506193925 22 0 0.0 0.0 0.00 0.00 0.00 46 1018.1
20260506193424 22 0 0.0 0.0 0.00 0.00 0.00 47 1018.3
20260506192424 21 0 0.0 0.0 0.00 0.00 0.00 47 1018.4
20260506191925 21 0 0.0 3.2 0.00 0.00 0.00 49 1018.4
20260506191424 21 0 0.0 3.2 0.00 0.00 0.00 48 1018.5
20260506190926 21 0 0.0 8.0 0.00 0.00 0.00 48 1018.7
20260506190424 21 0 0.0 8.0 0.00 0.00 0.00 49 1018.8
20260506185924 21 0 0.0 8.0 0.00 0.00 0.00 49 1018.8
20260506185425 21 0 0.0 8.0 0.00 0.00 0.00 49 1018.9
20260506184925 21 0 0.0 0.0 0.00 0.00 0.00 49 1018.9
20260506184424 21 0 0.0 0.0 0.00 0.00 0.00 50 1018.9
20260506183924 21 0 0.0 0.0 0.00 0.00 0.00 51 1019.1
20260506183423 20 0 0.0 0.0 0.00 0.03 0.00 52 1019.0
20260506182924 20 0 0.0 0.0 0.00 0.03 0.00 51 1019.2
20260506182424 20 0 0.0 0.0 0.00 0.03 0.00 52 1019.2
20260506181925 20 0 0.0 0.0 0.00 0.03 0.00 53 1019.4
20260506181425 20 0 0.0 0.0 0.00 0.03 0.00 52 1019.4
20260506180924 20 0 0.0 1.6 0.00 0.03 0.00 54 1019.5
20260506180424 20 0 0.0 1.6 0.00 0.03 0.00 54 1019.6
20260506175924 20 0 0.0 0.0 0.00 0.03 0.00 54 1019.5
20260506175423 20 0 0.0 0.0 0.00 0.05 0.00 57 1019.6
20260506174655 20 0 0.0 0.0 0.00 0.05 0.00 57 1019.6
20260506174154 20 0 0.0 0.0 0.00 0.05 0.00 57 1019.7
20260506173654 20 0 0.0 0.0 0.00 0.05 0.00 58 1019.8
20260506173155 19 0 0.0 0.0 0.00 0.05 0.00 60 1019.7
20260506172654 18 0 0.0 0.0 0.00 0.05 0.00 61 1019.8
20260506172155 18 0 0.0 0.0 0.00 0.05 0.00 61 1019.9
20260506171654 18 0 0.0 0.0 0.00 0.05 0.00 61 1019.9
20260506171155 18 0 0.0 0.0 0.00 0.05 0.00 61 1019.9
20260506170655 18 0 0.0 0.0 0.00 0.08 0.00 61 1019.9
20260506170158 18 0 0.0 0.0 0.00 0.08 0.00 62 1019.9
20260506165655 18 0 0.0 0.0 0.00 0.08 0.00 64 1020.0
20260506165156 17 0 0.0 0.0 0.00 0.08 0.00 65 1019.9
20260506164655 17 0 0.0 0.0 0.00 0.08 0.00 66 1019.9
20260506164156 17 0 0.0 0.0 0.00 0.10 0.00 66 1019.9
20260506163655 17 0 0.0 0.0 0.00 0.15 0.00 66 1019.9
20260506163155 17 0 0.0 0.0 0.00 0.15 0.00 66 1020.0
20260506162656 17 0 0.0 0.0 0.00 0.20 0.00 67 1020.0
20260506162154 16 0 0.0 0.0 0.00 0.20 0.00 67 1020.0
20260506161655 16 0 0.0 0.0 0.00 0.20 0.00 68 1020.0
20260506161155 16 0 0.0 0.0 0.00 0.20 0.00 68 1020.1
20260506160655 16 0 0.0 0.0 0.00 0.20 0.00 68 1020.1
20260506160157 16 0 0.0 0.0 0.00 0.20 0.00 68 1020.1
20260506155654 16 0 0.0 0.0 0.00 0.20 0.00 70 1020.1
20260506155154 16 0 0.0 0.0 0.00 0.20 0.00 71 1020.0
20260506154656 16 0 0.0 0.0 0.00 0.20 0.00 71 1020.0
20260506154154 16 0 0.0 0.0 0.00 0.20 0.00 72 1020.1
20260506153654 16 0 0.0 0.0 0.00 0.20 0.00 73 1020.0
20260506153156 15 0 0.0 6.4 0.00 0.20 0.00 73 1020.1
20260506152656 15 0 0.0 9.7 0.00 0.20 0.00 74 1020.0
20260506152155 15 0 0.0 9.7 0.00 0.20 0.00 74 1020.1
20260506151656 15 0 0.0 8.0 0.00 0.20 0.00 74 1020.1
20260506151154 15 0 0.0 0.0 0.00 0.20 0.00 74 1020.2
20260506150654 15 0 0.0 0.0 0.00 0.20 0.00 75 1020.2
20260506150155 15 0 0.0 8.0 0.00 0.20 0.00 76 1020.2
20260506145657 15 354 3.2 9.7 0.00 0.20 0.00 76 1020.1
20260506145155 14 0 0.0 12.9 0.00 0.20 0.00 76 1020.2
20260506144654 14 0 0.0 12.9 0.00 0.20 0.00 76 1020.2
20260506144155 14 0 0.0 12.9 0.00 0.20 0.00 77 1020.2
20260506143655 14 0 0.0 12.9 0.00 0.20 0.00 77 1020.1
20260506143154 14 0 0.0 8.0 0.00 0.20 0.00 77 1020.1
20260506142655 13 0 0.0 0.0 0.00 0.20 0.00 77 1020.1
20260506142158 13 0 0.0 0.0 0.00 0.20 0.00 77 1020.1
20260506141655 13 0 0.0 0.0 0.00 0.20 0.00 78 1020.1
20260506140752 13 0 0.0 0.0 0.00 0.20 0.00 78 1020.0
20260506140251 13 0 0.0 0.0 0.00 0.20 0.00 79 1020.0
20260506135752 13 0 0.0 0.0 0.00 0.20 0.00 79 1019.9
20260506135251 13 0 0.0 0.0 0.00 0.20 0.00 80 1019.8
20260506134752 13 0 0.0 0.0 0.00 0.23 0.00 80 1019.8
20260506134251 12 0 0.0 0.0 0.00 0.28 0.00 81 1019.8
20260506133754 12 0 0.0 0.0 0.00 0.30 0.00 81 1019.7
20260506133053 12 0 0.0 0.0 0.00 0.30 0.00 82 1019.7
20260506132551 12 0 0.0 0.0 0.00 0.30 0.00 82 1019.6
20260506132052 12 0 0.0 0.0 0.00 0.30 0.00 82 1019.6
20260506131608 11 0 0.0 0.0 0.00 0.30 0.00 82 1019.6
20260506131052 11 0 0.0 0.0 0.00 0.30 0.00 80 1019.5
20260506130551 12 0 0.0 0.0 0.00 0.30 0.00 80 1019.5
20260506130054 12 0 0.0 0.0 0.00 0.36 0.00 79 1019.4
20260506125552 12 0 0.0 0.0 0.00 0.36 0.00 79 1019.3
20260506125053 12 0 0.0 0.0 0.00 0.36 0.00 78 1019.2
20260506124552 12 0 0.0 0.0 0.00 0.36 0.00 78 1019.2
20260506124054 12 0 0.0 0.0 0.00 0.36 0.00 78 1019.1
20260506123551 13 0 0.0 0.0 0.00 0.36 0.00 77 1019.1
20260506123052 13 0 0.0 0.0 0.00 0.36 0.00 78 1019.0
20260506122551 13 0 0.0 0.0 0.00 0.36 0.00 78 1018.9
20260506122052 13 0 0.0 0.0 0.00 0.36 0.00 78 1018.7
20260506121551 12 0 0.0 0.0 0.00 0.36 0.00 78 1018.7
20260506121053 13 0 0.0 0.0 0.00 0.36 0.00 77 1018.6
20260506120551 13 0 0.0 0.0 0.00 0.36 0.00 76 1018.6
20260506120005 13 0 0.0 0.0 0.00 0.36 0.00 75 1018.6
20260506115505 13 0 0.0 0.0 0.00 0.36 0.00 74 1018.7
20260506115007 13 0 0.0 0.0 0.00 0.36 0.00 74 1018.7
20260506114511 13 0 0.0 0.0 0.00 0.36 0.00 74 1018.7
20260506114005 14 0 0.0 0.0 0.00 0.38 0.00 73 1018.6
20260506113005 14 0 0.0 8.0 0.00 0.38 0.00 73 1018.7
20260506112506 14 0 0.0 8.0 0.00 0.38 0.00 73 1018.6
20260506112006 14 0 0.0 8.0 0.00 0.38 0.00 73 1018.6
20260506111511 14 0 0.0 12.9 0.00 0.38 0.00 73 1018.6
20260506111005 14 0 0.0 12.9 0.00 0.38 0.00 73 1018.6
20260506110006 14 0 0.0 9.7 0.00 0.38 0.00 73 1018.6
20260506105248 14 3 1.6 12.9 0.00 0.38 0.00 73 1018.6
20260506104749 14 11 1.6 12.9 0.00 0.38 0.00 73 1018.6
20260506104248 14 0 0.0 9.7 0.00 0.38 0.00 73 1018.5
20260506103748 14 354 1.6 9.7 0.00 0.38 0.00 73 1018.5
20260506103249 14 0 0.0 12.9 0.00 0.38 0.00 73 1018.5
20260506102248 14 0 0.0 9.7 0.00 0.38 0.00 72 1018.5
20260506101643 14 0 0.0 9.7 0.00 0.38 0.00 72 1018.5
20260506101144 14 0 0.0 9.7 0.00 0.41 0.00 72 1018.5
20260506100645 14 358 1.6 9.7 0.00 0.41 0.00 72 1018.4
20260506100143 14 0 0.0 6.4 0.00 0.41 0.00 72 1018.4
20260506095644 13 0 0.0 3.2 0.00 0.41 0.00 72 1018.3
20260506094940 13 0 0.0 12.9 0.00 0.41 0.00 71 1018.4
20260506094439 13 8 1.6 12.9 0.00 0.41 0.00 70 1018.3
20260506093940 13 0 0.0 4.8 0.00 0.41 0.00 70 1018.3
20260506093439 13 0 0.0 4.8 0.00 0.41 0.00 69 1018.3
20260506092941 14 0 0.0 11.3 0.00 0.41 0.00 69 1018.3
20260506092440 14 0 0.0 11.3 0.00 0.41 0.00 69 1018.2
20260506091940 14 0 0.0 9.7 0.00 0.41 0.00 68 1018.2
20260506091436 14 358 1.6 9.7 0.00 0.41 0.00 68 1018.1
20260506090944 14 0 0.0 6.4 0.00 0.41 0.00 68 1018.2
20260506090441 14 0 0.0 6.4 0.00 0.41 0.00 68 1018.1
20260506085936 14 0 0.0 9.7 0.00 0.41 0.00 67 1018.1
20260506085439 14 0 0.0 12.9 0.00 0.41 0.00 67 1018.1
20260506084937 14 346 1.6 12.9 0.00 0.41 0.00 66 1018.1
20260506084236 14 0 0.0 8.0 0.00 0.41 0.00 66 1018.2
20260506083736 14 0 0.0 8.0 0.00 0.41 0.00 66 1018.2
20260506083236 14 0 0.0 8.0 0.00 0.41 0.00 67 1018.1
20260506082736 13 0 0.0 3.2 0.00 0.41 0.00 69 1018.1
20260506082236 13 0 0.0 0.0 0.00 0.41 0.00 69 1018.0
20260506081736 13 0 0.0 0.0 0.00 0.41 0.00 67 1018.0
20260506081236 13 0 0.0 0.0 0.00 0.41 0.00 67 1018.0
20260506080736 14 0 0.0 0.0 0.00 0.41 0.00 67 1017.9
20260506080236 14 0 0.0 0.0 0.00 0.41 0.00 67 1017.8
20260506073236 13 0 0.0 0.0 0.00 0.41 0.00 68 1017.7
20260506072736 13 0 0.0 0.0 0.00 0.41 0.00 68 1017.6
20260506072236 14 0 0.0 0.0 0.00 0.41 0.00 68 1017.6
20260506071736 14 0 0.0 0.0 0.00 0.41 0.00 68 1017.5
20260506071236 13 0 0.0 0.0 0.00 0.41 0.00 68 1017.5
20260506070736 14 0 0.0 0.0 0.00 0.41 0.00 68 1017.4
20260506070236 14 0 0.0 0.0 0.00 0.41 0.00 68 1017.4
20260506062038 14 0 0.0 0.0 0.00 0.41 0.41 70 1016.9
20260506061539 14 0 0.0 0.0 0.00 0.41 0.41 70 1016.8
20260506061042 14 0 0.0 0.0 0.00 0.41 0.41 70 1016.8
20260506051038 14 0 0.0 0.0 0.00 0.41 0.41 73 1016.6
20260506050538 14 0 0.0 0.0 0.00 0.41 0.41 74 1016.6
20260506045038 14 0 0.0 0.0 0.00 0.41 0.41 74 1016.4
20260506044542 14 0 0.0 0.0 0.00 0.41 0.41 74 1016.3
20260506044041 14 0 0.0 0.0 0.00 0.41 0.41 74 1016.3
20260506043543 15 0 0.0 0.0 0.00 0.41 0.41 73 1016.2
20260506043042 15 0 0.0 0.0 0.00 0.41 0.41 73 1016.2
20260506042541 15 0 0.0 0.0 0.00 0.41 0.41 72 1016.2
20260506042042 15 0 0.0 0.0 0.00 0.41 0.41 70 1016.0
20260506041543 15 0 0.0 0.0 0.00 0.41 0.41 69 1015.9
20260506041041 15 0 0.0 0.0 0.00 0.41 0.41 68 1015.9
20260506040538 16 0 0.0 0.0 0.00 0.41 0.41 67 1015.9
20260506040044 16 0 0.0 0.0 0.00 0.41 0.41 66 1015.8
20260506035542 16 0 0.0 0.0 0.00 0.41 0.41 64 1015.7
20260506035042 16 0 0.0 0.0 0.00 0.41 0.41 63 1015.7
20260506034214 16 0 0.0 0.0 0.00 0.41 0.41 62 1015.5
20260506033717 16 0 0.0 0.0 0.00 0.41 0.41 62 1015.5
20260506033215 16 0 0.0 0.0 0.00 0.41 0.41 61 1015.4
20260506032715 16 0 0.0 0.0 0.00 0.41 0.41 61 1015.4
20260506032216 17 0 0.0 0.0 0.00 0.41 0.41 60 1015.3
20260506031715 17 0 0.0 0.0 0.00 0.41 0.41 59 1015.1
20260506031215 17 0 0.0 0.0 0.00 0.41 0.41 57 1015.0
20260506030715 17 0 0.0 0.0 0.00 0.41 0.41 57 1015.0
20260506030214 17 0 0.0 0.0 0.00 0.41 0.41 57 1014.9
20260506025715 17 0 0.0 0.0 0.00 0.41 0.41 56 1014.8
20260506025214 17 0 0.0 0.0 0.00 0.41 0.41 57 1014.7
20260506024714 17 0 0.0 0.0 0.00 0.41 0.41 56 1014.8
20260506024217 17 0 0.0 0.0 0.00 0.41 0.41 56 1014.7
20260506023717 17 0 0.0 0.0 0.00 0.41 0.41 56 1014.7
20260506023214 17 0 0.0 0.0 0.00 0.41 0.41 56 1014.6
20260506022714 17 0 0.0 0.0 0.00 0.41 0.41 54 1014.6
20260506022214 17 0 0.0 0.0 0.00 0.41 0.41 53 1014.5
20260506021715 17 0 0.0 0.0 0.00 0.41 0.41 53 1014.5
20260506021214 17 0 0.0 0.0 0.00 0.41 0.41 54 1014.5
20260506020716 17 0 0.0 0.0 0.00 0.41 0.41 54 1014.5
20260506020217 17 0 0.0 0.0 0.00 0.41 0.41 53 1014.3
20260506015214 17 0 0.0 0.0 0.00 0.41 0.41 53 1014.3
20260506014715 17 0 0.0 0.0 0.00 0.41 0.41 56 1014.4
20260506014214 17 0 0.0 0.0 0.00 0.41 0.41 57 1014.3
20260506013714 17 0 0.0 0.0 0.00 0.41 0.41 56 1014.3
20260506013214 17 0 0.0 0.0 0.00 0.41 0.41 56 1014.3
20260506012714 18 0 0.0 6.4 0.00 0.41 0.41 56 1014.2
20260506012214 18 0 0.0 6.4 0.00 0.41 0.41 55 1014.2
20260506011714 18 0 0.0 0.0 0.00 0.41 0.41 54 1014.3
20260506011216 18 0 0.0 0.0 0.00 0.41 0.41 54 1014.2
20260506010714 18 0 0.0 0.0 0.00 0.41 0.41 54 1014.2
20260506010215 18 0 0.0 0.0 0.00 0.41 0.41 55 1014.1
20260506005717 18 0 0.0 0.0 0.00 0.41 0.41 56 1014.1
20260506005214 18 0 0.0 0.0 0.00 0.41 0.41 56 1014.1
20260506004714 18 0 0.0 0.0 0.00 0.41 0.41 58 1014.1
20260506004214 17 0 0.0 0.0 0.00 0.41 0.41 58 1014.1
20260506003714 17 0 0.0 0.0 0.00 0.41 0.41 59 1014.2
20260506003214 17 0 0.0 0.0 0.00 0.41 0.41 59 1014.2
20260506002714 17 0 0.0 0.0 0.00 0.41 0.41 60 1014.2
20260506002214 17 0 0.0 0.0 0.00 0.41 0.41 60 1014.2
20260506001714 17 0 0.0 0.0 0.00 0.41 0.41 59 1014.2
20260506001214 17 0 0.0 0.0 0.00 0.41 0.41 60 1014.2
20260506000714 17 0 0.0 0.0 0.00 0.41 0.41 59 1014.2
20260506000214 17 0 0.0 0.0 0.00 0.41 0.41 58 1014.2
20260505235715 17 0 0.0 6.4 0.00 0.41 0.41 58 1014.2
20260505235214 17 0 0.0 8.0 0.00 0.41 0.41 58 1014.2
20260505234714 18 0 0.0 8.0 0.00 0.41 0.41 58 1014.2
20260505234214 18 0 0.0 0.0 0.00 0.41 0.41 58 1014.2
20260505233714 18 0 0.0 0.0 0.00 0.41 0.41 58 1014.2
20260505233214 17 0 0.0 0.0 0.00 0.41 0.41 59 1014.2
20260505232714 17 0 0.0 0.0 0.00 0.41 0.41 58 1014.3
20260505232009 18 0 0.0 8.0 0.00 0.41 0.41 58 1014.4
20260505231509 18 0 0.0 6.4 0.00 0.41 0.41 59 1014.4
20260505231010 18 0 0.0 0.0 0.00 0.41 0.41 60 1014.4
20260505230512 17 0 0.0 0.0 0.00 0.41 0.41 60 1014.4
20260505230009 17 0 0.0 0.0 0.00 0.41 0.41 60 1014.5
20260505225441 17 0 0.0 0.0 0.00 0.41 0.41 61 1014.6
20260505224940 17 0 0.0 0.0 0.00 0.41 0.41 63 1014.6
20260505224440 17 0 0.0 0.0 0.00 0.41 0.41 64 1014.7